RH
69 71 73 73 74 75 74 73 74 76 73 69 66 64 60 58 54 50 47 45 43 42 41 39 38 38 37 36 35 34 32 31 29 27 26 24 23 22 21 20 19 18
59 59 60 62 62 63 61 59 58 59 60 57 54 52 49 47 45 43 42 40 39 37 36 35 34 34 33 32 31 29 28 26 25 24 23 22 20 19 18 17 15 14
55 55 55 55 55 54 53 51 50 50 51 51 50 49 47 45 43 42 40 39 36 33 31 31 30 29 29 27 26 25 23 22 21 20 18 17 16 14 14 12 12 11
49 49 49 49 49 49 48 47 46 46 45 44 44 43 41 39 37 36 35 34 31 29 27 26 25 24 24 22 21 19 18 17 15 14 14 13 13 13 12 12 12 12
41 41 41 41 41 41 40 40 39 38 37 37 36 35 35 34 32 31 30 29 27 24 22 21 20 19 18 17 16 15 15 14 13 13 13 13 14 14 14 14 14 14
34 35 35 35 35 34 34 34 33 33 32 31 30 29 28 28 26 25 24 23 21 20 18 17 16 15 15 14 15 15 15 16 16 15 16 16 16 15 14 14 14 13
29 29 29 29 29 29 29 29 28 27 26 25 24 24 23 22 22 21 20 19 18 17 16 16 16 16 16 17 17 18 18 19 18 18 17 16 15 15 14 13 12 12
26 26 26 26 26 26 26 25 25 23 23 22 22 21 20 20 20 19 19 19 19 20 20 20 20 20 19 19 19 19 19 18 17 17 16 16 15 15 15 14 13 12
25 25 25 25 25 24 24 23 23 22 21 21 20 20 20 21 22 23 24 25 26 26 24 23 22 20 19 18 18 18 18 18 17 18 18 18 18 17 17 16 15 13
27 26 26 27 26 25 25 24 23 23 23 23 23 24 25 26 27 27 27 28 28 27 25 23 22 21 21 21 21 22 22 21 21 21 21 20 20 19 18 16 15 15
37 36 36 36 35 34 33 32 31 29 29 28 28 28 28 28 28 27 27 28 29 29 29 28 28 27 27 28 28 27 27 26 25 24 23 22 20 19 18 16 15 14
47 46 45 43 41 40 38 36 35 34 33 33 33 32 33 33 34 34 33 34 36 37 38 37 36 35 35 35 33 32 31 29 27 26 24 22 20 18 17 15 14 13
53 52 51 49 47 46 45 44 43 43 43 43 43 43 44 44 45 45 44 44 45 45 45 44 43 41 40 39 37 35 33 31 29 27 24 21 19 17 15 14 13 12
63 62 60 59 58 56 56 55 54 53 53 52 51 50 50 50 50 50 48 47 48 48 48 47 46 45 44 42 40 38 35 33 29 26 23 19 17 15 13 13 13 13
69 68 66 64 62 61 61 60 58 57 56 55 54 51 50 50 50 50 49 47 47 47 47 47 46 46 45 42 40 37 34 31 27 23 20 17 15 15 14 14 14 14
70 69 68 66 65 64 63 62 61 60 59 58 57 55 54 53 52 52 51 49 48 47 46 46 45 44 42 39 36 32 28 25 21 19 17 16 16 16 16 16 16 15
66 65 65 65 64 64 63 63 62 62 62 62 61 59 57 56 54 53 52 49 48 46 45 44 42 39 36 32 28 24 21 19 17 17 17 17 18 18 18 17 17 17
64 63 63 63 64 64 64 64 64 64 64 63 62 60 57 55 53 52 50 48 46 43 41 38 35 31 27 23 21 18 17 17 17 17 18 18 19 18 18 18 17 17
60 60 60 60 60 61 61 61 61 61 60 59 58 56 54 52 50 48 46 43 39 35 32 28 25 22 20 18 18 18 18 18 18 19 19 19 18 18 17 16 16 16
52 52 53 53 53 54 54 55 55 55 54 54 53 51 49 46 43 39 36 32 28 25 23 22 21 20 20 20 20 20 19 19 19 18 18 17 17 16 16 15 15 16
50 50 50 50 49 50 50 50 49 48 47 45 42 40 36 33 30 27 25 23 22 21 21 22 23 22 22 22 21 20 18 18 18 18 17 17 17 16 16 16 16 16
46 46 45 44 43 42 41 39 37 35 32 30 28 26 24 23 22 21 21 21 21 21 21 22 23 22 22 21 19 18 17 16 17 18 17 17 17 16 16 15 15 15
35 33 32 31 29 27 26 25 23 22 21 20 20 20 20 20 21 21 22 22 22 21 21 21 21 20 19 18 18 17 16 14 15 16 17 16 16 15 14 14 14 13
23 22 21 21 20 20 20 20 19 19 19 19 19 20 20 20 21 21 21 21 21 20 19 19 19 18 18 17 17 16 15 13 13 13 15 15 15 14 14 13 13 13
19 19 19 19 19 20 20 20 20 20 19 19 19 19 19 19 19 20 20 19 19 19 19 18 18 18 17 16 16 15 15 13 12 12 13 14 15 14 14 13 14 13
19 19 19 19 19 20 20 20 20 20 19 19 19 19 18 18 18 19 19 19 19 19 19 19 18 18 17 16 16 16 15 14 12 12 13 14 14 14 13 13 12 12
Wind_Speed
107 107 108 109 109 110 110 110 110 110 110 111 111 111 111 111 112 112 112 112 112 112 112 112 112 112 112 112 113 113 113 113 113 113 113 113 113 113 113 113 113 113
108 109 109 110 110 111 111 111 111 110 110 111 111 112 112 112 112 112 112 112 112 111 111 111 111 111 111 111 111 111 111 111 111 111 111 112 112 112 112 113 113 113
108 109 109 110 110 111 111 111 111 110 110 111 111 112 112 112 111 111 111 111 111 111 110 109 109 109 109 109 109 109 110 110 110 110 110 111 111 111 111 112 112 112
107 108 109 109 109 110 110 110 110 110 109 109 109 110 110 110 109 109 109 109 109 109 109 108 108 107 108 108 108 109 109 110 110 109 109 109 109 110 110 110 110 111
104 105 106 107 107 107 107 107 108 108 108 107 107 107 107 107 108 107 107 107 108 108 108 108 108 107 107 107 107 108 108 109 108 108 107 107 107 108 108 109 109 110
102 103 103 104 105 105 105 105 106 106 106 106 106 106 106 106 106 107 107 107 107 107 107 107 107 106 106 106 105 106 106 107 107 107 106 106 107 107 108 108 108 109
99 100 101 102 102 103 103 104 104 104 104 104 104 104 105 105 105 105 105 105 105 105 106 106 105 105 105 105 104 104 105 105 106 106 106 106 106 107 107 108 108 108
97 98 99 99 100 100 101 102 102 103 103 103 102 103 103 103 103 104 103 103 103 104 104 104 104 104 104 104 103 103 103 104 105 105 105 106 106 106 107 108 108 108
95 96 96 97 98 99 100 100 101 101 101 101 101 101 101 101 101 102 102 102 102 103 104 104 104 104 103 103 103 103 103 103 104 104 105 105 106 106 107 107 108 108
93 94 95 96 97 97 98 99 99 99 99 100 99 99 99 99 100 100 100 101 101 102 103 103 103 104 103 103 103 103 104 104 104 104 105 105 106 106 107 107 107 107
91 92 93 94 95 96 97 97 98 98 98 98 98 98 98 98 99 99 100 100 100 101 102 103 104 104 104 104 104 104 104 104 105 105 105 106 106 106 107 107 107 107
90 91 92 93 94 95 96 96 96 97 97 97 97 97 98 98 99 100 100 100 100 101 102 103 104 104 104 105 105 105 105 105 106 106 106 107 107 107 107 107 107 106
90 91 92 93 94 95 95 96 96 96 97 97 97 97 98 98 99 100 100 101 101 101 102 103 104 105 105 105 106 106 106 107 107 107 108 108 107 107 107 107 107 106
92 93 93 94 95 96 96 97 97 97 98 98 98 98 98 99 100 100 102 102 102 102 103 104 105 105 106 106 107 107 108 108 108 108 109 109 108 108 108 108 107 106
94 95 96 96 97 97 98 98 99 99 99 100 100 100 100 100 101 102 103 104 104 104 104 105 106 106 107 108 108 108 109 109 109 109 109 109 109 109 108 108 108 107
96 97 97 98 98 99 99 100 100 100 101 101 102 102 102 102 103 103 104 105 105 105 106 106 107 107 108 109 109 110 110 110 110 110 109 109 109 109 109 109 109 108
97 98 98 99 99 100 101 101 101 102 102 103 103 104 104 104 105 105 106 106 107 107 107 107 108 108 109 110 110 110 110 110 110 109 109 109 109 109 110 109 109 109
98 98 99 99 100 100 101 101 102 102 103 104 104 105 105 105 106 106 107 107 108 108 108 108 109 110 110 110 110 110 110 110 110 109 109 110 110 110 110 110 109 109
97 98 98 99 100 100 101 102 102 103 104 104 105 106 106 106 107 107 108 108 109 109 109 109 110 110 110 110 110 111 111 111 110 110 110 110 110 110 110 109 109 108
97 98 98 99 100 100 101 102 103 103 104 105 105 106 106 107 108 108 108 109 109 109 109 109 110 110 110 111 111 111 111 111 111 111 110 110 109 109 109 108 108 108
96 97 98 99 100 101 101 102 103 104 105 105 106 107 107 107 108 108 108 108 109 109 109 109 110 110 111 111 111 112 111 111 110 110 110 109 109 109 108 108 108 108
97 98 99 100 101 102 102 103 104 105 105 106 106 107 107 107 107 108 108 108 108 108 109 109 110 111 111 111 111 112 111 110 109 109 110 109 109 108 108 108 109 109
99 99 100 101 102 103 103 104 104 105 105 105 106 106 106 107 107 107 107 108 108 109 109 109 110 110 111 111 111 111 111 110 108 107 108 109 109 108 108 109 109 109
100 100 100 101 102 103 103 103 104 104 105 105 105 106 106 107 107 107 108 108 108 109 109 109 109 109 110 110 110 110 111 110 108 107 107 108 109 109 109 109 109 109
100 100 101 101 102 102 103 103 104 104 105 105 105 106 106 106 106 107 107 107 107 108 108 108 108 109 110 110 110 110 111 111 109 107 107 108 109 109 108 108 108 109
101 101 101 102 102 103 103 104 104 105 105 105 106 106 106 106 105 106 106 107 107 107 108 109 109 109 110 110 110 111 112 112 111 108 108 108 108 108 108 108 108 108
Wind_Direction
266 266 267 267 267 268 268 268 268 269 270 271 271 271 271 272 272 272 273 273 273 273 273 273 273 273 274 274 274 274 274 274 275 275 275 275 275 275 275 276 276 276
266 266 267 267 267 268 268 269 269 270 270 271 271 272 272 272 272 272 273 273 273 273 273 273 273 274 274 274 274 274 274 275 275 275 275 275 276 276 276 276 276 276
265 266 266 267 267 268 269 269 270 270 270 271 271 272 272 272 273 273 273 273 274 274 273 273 274 274 274 274 274 275 275 275 275 275 275 276 276 276 276 276 277 277
265 266 266 267 267 268 269 269 270 270 270 271 271 271 272 272 273 273 273 273 274 274 274 274 274 274 274 275 275 275 275 275 275 275 275 276 276 276 277 277 277 277
265 265 266 267 267 268 268 269 269 270 270 270 271 271 271 272 272 273 273 273 273 274 274 274 274 274 275 275 275 275 275 276 276 276 276 276 276 276 276 277 277 277
265 265 266 266 267 268 268 269 269 269 270 270 271 271 272 272 272 273 273 273 274 274 274 275 275 275 275 275 275 275 276 276 277 277 277 277 276 276 276 276 276 276
265 266 266 267 267 268 268 269 269 269 270 270 271 271 272 272 272 273 273 273 274 274 274 275 275 275 275 275 275 275 276 276 276 277 277 277 277 277 277 277 277 277
266 266 267 267 268 268 269 269 269 270 270 271 271 272 272 272 273 273 273 274 274 274 274 274 275 275 275 275 275 276 276 276 276 276 277 277 277 277 277 277 277 277
266 267 267 268 268 268 269 269 269 270 271 271 271 272 272 272 273 273 274 274 275 275 275 275 275 275 276 276 276 276 276 276 276 277 277 277 277 277 278 278 278 278
266 267 267 267 268 268 269 269 270 270 270 271 271 272 272 273 273 273 274 274 274 275 275 275 276 276 276 276 276 276 276 276 276 276 277 277 277 277 277 278 278 278
267 267 267 268 268 269 269 270 270 271 271 271 272 272 272 273 273 273 273 273 274 274 275 275 276 276 276 276 276 276 276 277 277 277 277 277 277 277 277 278 278 278
268 268 268 268 269 269 270 270 271 271 271 272 272 272 272 273 273 273 273 274 274 274 275 275 276 276 276 276 277 277 277 277 277 277 277 277 277 277 277 278 278 278
268 268 269 269 269 270 270 271 271 271 272 272 272 272 273 273 273 274 274 274 275 275 275 275 276 276 277 277 277 277 277 277 277 277 277 278 278 278 278 278 278 278
269 269 269 269 270 270 271 271 271 272 272 272 273 273 273 273 274 274 274 275 275 275 275 276 276 276 277 277 277 277 277 277 278 278 278 278 278 278 278 279 279 279
269 269 270 270 270 271 271 272 272 272 273 273 273 273 273 274 274 274 275 275 275 275 275 275 276 276 276 276 277 277 277 277 278 278 278 279 279 279 279 279 279 279
269 269 270 270 271 271 271 272 272 272 273 273 273 273 274 274 274 274 274 275 275 275 275 275 276 276 276 276 276 277 277 277 278 278 278 279 279 279 280 280 280 280
269 269 270 270 270 271 271 271 272 272 272 273 273 273 274 274 274 274 274 275 275 275 276 276 276 276 276 276 277 277 278 278 278 278 279 279 279 279 280 280 280 280
269 269 270 270 270 271 271 271 272 272 272 273 273 273 274 274 274 274 275 275 275 276 276 276 276 277 277 277 277 278 278 278 278 279 279 279 279 279 280 280 280 280
269 269 269 270 270 270 271 271 271 272 272 272 273 273 273 274 274 274 275 275 276 276 276 276 277 277 277 277 278 278 278 278 278 279 279 279 279 280 280 280 280 281
269 269 269 269 270 270 270 270 271 271 271 272 272 273 273 274 274 274 275 275 276 276 276 277 277 277 277 277 277 278 278 278 279 279 279 280 280 280 280 281 281 281
269 270 270 270 270 270 271 271 271 272 272 272 273 273 273 274 274 275 275 275 276 276 276 277 277 277 277 278 278 278 279 279 280 280 280 280 281 281 281 281 281 281
271 271 271 271 271 272 272 272 272 272 273 273 273 274 274 274 275 275 275 276 276 276 276 277 277 277 278 278 279 279 279 279 280 280 280 281 281 281 281 281 281 281
272 272 272 272 273 273 273 273 273 273 274 274 274 274 275 275 275 276 276 276 277 277 277 277 278 278 278 279 279 279 279 279 279 280 280 281 281 281 282 282 282 282
273 273 273 273 274 274 274 274 274 274 275 275 275 275 275 276 276 276 277 277 277 278 278 278 278 279 279 279 279 279 280 280 280 280 280 281 281 282 282 282 282 282
275 275 275 274 275 275 275 275 275 275 275 276 276 276 276 277 277 277 278 278 278 279 279 279 279 279 280 280 280 280 281 281 281 281 281 281 282 282 282 282 283 283
276 276 276 276 276 276 276 277 277 277 277 277 277 278 278 278 278 279 279 279 279 280 280 280 280 280 281 281 281 281 281 281 281 281 281 282 282 282 282 283 283 283